Location: *
(31.2983°S, 151.4094°E)
Time: 04:56:10
(UTC+00:00)

Atlas Centaur 2 - Pass Details

Date: 25 August 2019
Orbit: 459 x 1311 km, 30.4° (Epoch: 17 September)

Event Time Altitude Azimuth Distance (km) Brightness Sun altitude
Exits shadow 17:36:22 55° 20° (NNE) 1,535 3.4 -35.3°
Drops below altitude 10° 17:43:24 10° 60° (ENE) 3,299 5.8 -33.8°
Sets 17:46:20 0° 63° (ENE) 4,221 6.5 -33.2°
